Regional Weather Roundup
Issued by NWS Cleveland, OH

Home | Current Version | Previous Version | Graphics & Text | Print | Product List | Glossary On
Versions: 1 2 3 4 5 6 7 8 9 10 11 12 13 14 15 16 17 18 19 20 21 22 23 24 25 26 27 28 29 30 31 32 33 34 35 36 37 38 39 40 41 42 43 44 45 46 47 48 49 50
000
ASUS41 KCLE 201110
RWRCLE
OHIO REGIONAL WEATHER ROUNDUP
NATIONAL WEATHER SERVICE CLEVELAND, OH
700 AM EDT SUN APR 20 2014

NOTE: "FAIR" INDICATES FEW OR NO CLOUDS BELOW 12,000 FEET WITH NO
SIGNIFICANT WEATHER AND/OR OBSTRUCTIONS TO VISIBILITY.

OHZ001>008-015>018-024>027-034-035-043-044-201200-
   NORTHWEST OHIO

CITY           SKY/WX    TMP DP  RH WIND       PRES   REMARKS
DEFIANCE       CLEAR     33  29  85 N3        30.31R FOG
FINDLAY        CLEAR     35  31  85 SE6       30.28F
TOLEDO EXPRESS CLEAR     35  31  85 CALM      30.31R
TOLEDO EXEC    CLEAR     38  33  82 NE3       30.32R
LIMA           PTCLDY    37  31  78 E5        30.28S
$$

OHZ009>014-019>023-028>033-038-089-201200-
   NORTHEAST OHIO

CITY           SKY/WX    TMP DP  RH WIND       PRES   REMARKS
CLE-HOPKINS    PTCLDY    38  31  76 CALM      30.34S
CLE-LAKEFRONT  CLEAR     43  30  60 SE7       30.30S
CUY CO. ARPT   MOCLDY    46  28  49 SE14      30.32
LORAIN-ELYRIA  CLEAR     36  31  82 S3        30.32R
ASHTABULA      CLEAR     43  26  51 SE7       30.35R
AKRON-CANTON   PTCLDY    41  30  65 E6        30.32R
WOOSTER        CLEAR     36  29  75 E3        30.31F
MANSFIELD      CLEAR     38  30  73 SE3       30.29S
YOUNGSTOWN     PTCLDY    42  27  55 SE8       30.34R
$$

OHZ042-051>053-060>062-070>072-077>081-201200-
  SOUTHWEST OHIO

CITY           SKY/WX    TMP DP  RH WIND       PRES   REMARKS
CINC-COVINGTON MOCLDY    45  33  63 N6        30.26R
CINC-LUNKEN    CLEAR     38  37  97 CALM      30.29R
HAMILTON       PTCLDY    41  36  82 CALM      30.28S
DAYTON         PTCLDY    40  31  70 CALM      30.29R
WRIGHT-PAT AFB PTCLDY    41  33  71 CALM      30.28S
DAYTON GENERAL CLEAR     42  33  70 E9        30.26S
WILMINGTON     CLEAR     42  31  64 E6        30.27S
$$

OHZ036-037-039>041-045>050-054>059-063>069-073>076-082>088-201200-
  CENTRAL AND SOUTHEAST OHIO

CITY           SKY/WX    TMP DP  RH WIND       PRES   REMARKS
COLUMBUS       PTCLDY    45  30  55 N3        30.29R
OSU AIRPORT    CLEAR     39  30  70 N5        30.29R
BOLTON FIELD   CLEAR     38  31  76 N3        30.29R
RICKENBACK AFB CLEAR     45  29  53 NE3       30.29R
NEWARK         CLEAR     38  30  73 N3        30.30R
MARION         CLEAR     36  30  79 CALM      30.29S
LANCASTER      CLEAR     38  32  79 CALM      30.29R
ZANESVILLE     CLEAR     40  29  64 CALM      30.30R
NEW PHILLY     CLEAR     36  30  79 CALM      30.33R
$$



USA.gov is the U.S. government's official web portal to all federal, state and local government web resources and services.